Woodland Hills, California, United States (91364)
Lat: 34.17N, Lon: 118.61W
Wx Zone: CAZ547
Local Info
Past Weather Observations for Today

NOTE: This archive is for the closest National Weather Service station to Woodland Hills. Information may differ from the station used for current weather conditions.

Click here for Long-term Archive

Time Weather Temperature Dewpoint Humidity Pressure Winds Precip Visibility
16:51
Clear
72°F / 22°C 57°F / 14°C 61% 29.8 in
(1009 mb)
SSE 10.4 mph
(SSE 17 kph)
- 10SM
15:51
Clear
75°F / 24°C 57°F / 14°C 54% 29.8 in
(1009 mb)
SE 11.5 mph
(SE 19 kph)
- 10SM
14:51
Clear
79°F / 26°C 57°F / 14°C 48% 29.83 in
(1010 mb)
SE 10.4 mph
(SE 17 kph)
- 10SM
13:51
Clear
79°F / 26°C 57°F / 14°C 48% 29.83 in
(1010 mb)
SSE 10.4 mph
(SSE 17 kph)
- 8SM
12:51
Clear
79°F / 26°C 57°F / 14°C 48% 29.86 in
(1011 mb)
S 11.5 mph
(S 19 kph)
- 8SM
11:51
Clear
75°F / 24°C 55°F / 13°C 50% 29.86 in
(1011 mb)
S 5.8 mph
(S 9 kph)
- 9SM
10:51
Clear
Hazy
72°F / 22°C 55°F / 13°C 57% 29.89 in
(1012 mb)
Variable 3.5 mph
(Variable 6 kph)
- 6SM
10:24
Clear
Hazy
68°F / 20°C 55°F / 13°C 64% 29.89 in
(1012 mb)
SE 6.9 mph
(SE 11 kph)
- 6SM
09:51
Mostly Cloudy
Hazy
64°F / 18°C 55°F / 13°C 73% 29.89 in
(1012 mb)
S 5.8 mph
(S 9 kph)
- 6SM
09:09
Overcast
Hazy
63°F / 17°C 55°F / 13°C 77% 29.92 in
(1013 mb)
SSE 4.6 mph
(SSE 7 kph)
- 5SM
08:51
Overcast
Hazy
61°F / 16°C 55°F / 13°C 83% 29.92 in
(1013 mb)
Variable 3.5 mph
(Variable 6 kph)
- 5SM
07:51
Overcast
Fog And Mist
59°F / 15°C 55°F / 13°C 88% 29.92 in
(1013 mb)
Calm - 5SM
07:39
Overcast
Fog And Mist
59°F / 15°C 55°F / 13°C 88% 29.92 in
(1013 mb)
S 4.6 mph
(S 7 kph)
- 4SM
06:51
Overcast
Fog And Mist
57°F / 14°C 55°F / 13°C 94% 29.92 in
(1013 mb)
Calm - 4SM
05:51
Overcast
Fog And Mist
57°F / 14°C 55°F / 13°C 94% 29.89 in
(1012 mb)
Calm - 3SM
04:51
Overcast
57°F / 14°C 54°F / 12°C 88% 29.89 in
(1012 mb)
ENE 5.8 mph
(ENE 9 kph)
- 5SM
03:51
Overcast
57°F / 14°C 54°F / 12°C 88% 29.89 in
(1012 mb)
SE 5.8 mph
(SE 9 kph)
- 4SM
03:31
Mostly Cloudy
57°F / 14°C 54°F / 12°C 88% 29.89 in
(1012 mb)
E 4.6 mph
(E 7 kph)
- 5SM
03:20
Partly Cloudy
57°F / 14°C 54°F / 12°C 88% 29.86 in
(1011 mb)
E 3.5 mph
(E 6 kph)
- 6SM
02:51
Clear
57°F / 14°C 54°F / 12°C 88% 29.89 in
(1012 mb)
E 4.6 mph
(E 7 kph)
- 8SM
01:51
Clear
57°F / 14°C 54°F / 12°C 88% 29.89 in
(1012 mb)
SSE 3.5 mph
(SSE 6 kph)
- 10SM
00:51
Clear
59°F / 15°C 54°F / 12°C 82% 29.89 in
(1012 mb)
ESE 3.5 mph
(ESE 6 kph)
- 10SM
Time Weather Temperature Dewpoint Humidity Pressure Winds Precip Visibility


Weather for websites

WeatherForYou.com, LLC is not responsible for any damages or problems caused by this service. Current weather conditions are obtained from the closest station including government and personal stations which may have varying degrees of accuracy. Weather forecasts are derived from the NOAA NDFD. Like all things, this site belongs to Jesus Christ... He just trusts us to maintain it. If you have any questions or comments email webmaster@weatherforyou.com

Copyright © 2016, WeatherForYou.com LLC. All rights reserved.